This is the latest recevied weather packets stored in our database for station/object DK9HI-WX. If no packets are shown the sender has not sent any weather packets the latest 10 day(s).
| Time | Temp. | Humidity | Pressure | Rain* | Wind** | Luminosity | Snow |
|---|---|---|---|---|---|---|---|
| 1777454571 | 13.33° C | 36% | 1030.9 hPa | - | - | - | - |
| 1777453971 | 13.33° C | 35% | 1030.9 hPa | - | - | - | - |
| 1777453372 | 12.78° C | 38% | 1030.9 hPa | - | - | - | - |
| 1777452771 | 12.78° C | 39% | 1031 hPa | - | - | - | - |
| 1777452171 | 12.22° C | 41% | 1031 hPa | - | - | - | - |
| 1777451571 | 12.22° C | 42% | 1030.9 hPa | - | - | - | - |
| 1777450971 | 11.67° C | 43% | 1030.9 hPa | - | - | - | - |
| 1777450371 | 11.11° C | 44% | 1030.7 hPa | - | - | - | - |
| 1777449771 | 10.56° C | 46% | 1030.6 hPa | - | - | - | - |
| 1777449171 | 10.56° C | 46% | 1030.5 hPa | - | - | - | - |
| 1777448571 | 10° C | 47% | 1030.6 hPa | - | - | - | - |
| 1777447971 | 10° C | 49% | 1030.6 hPa | - | - | - | - |
| 1777447371 | 9.44° C | 49% | 1030.7 hPa | - | - | - | - |
| 1777446771 | 9.44° C | 50% | 1030.6 hPa | - | - | - | - |
| 1777446171 | 8.89° C | 51% | 1030.6 hPa | - | - | - | - |
| 1777445571 | 8.89° C | 50% | 1030.4 hPa | - | - | - | - |
| 1777444971 | 8.33° C | 52% | 1030.4 hPa | - | - | - | - |
| 1777444370 | 8.33° C | 52% | 1030.4 hPa | - | - | - | - |
| 1777443770 | 7.78° C | 53% | 1030.4 hPa | - | - | - | - |
| 1777443171 | 7.78° C | 54% | 1030.2 hPa | - | - | - | - |
| 1777442570 | 7.78° C | 54% | 1030 hPa | - | - | - | - |
| 1777441970 | 7.22° C | 54% | 1029.9 hPa | - | - | - | - |
| 1777441370 | 7.22° C | 56% | 1029.9 hPa | - | - | - | - |
| 1777440770 | 6.67° C | 56% | 1029.7 hPa | - | - | - | - |
| 1777440170 | 6.67° C | 58% | 1029.7 hPa | - | - | - | - |
* Rain since midnight (hover to see other rain measurements)
** Current wind speed in m/s (hover to see current wind gust speed)